Location: Unspecified
(41.5516°N, 88.1098°W)
Time: 20:27:59
(UTC-05:00)

Hubble Space Telescope - Visible Passes

Search period start: 25 April 2015 00:00
Search period end: 05 May 2015 00:00
Orbit: 542 x 546 km, 28.5° (Epoch: 25 April)

Date Brightness Start Highest point End Pass type
(mag) Time Alt. Az. Time Alt. Az. Time Alt. Az.
02 May 2.9 21:01:09 10° S 21:02:30 11° S 21:02:44 11° SSE visible
03 May 2.8 20:52:02 10° SSW 20:53:46 12° S 20:54:52 11° SSE visible
04 May 2.9 20:43:05 10° SSW 20:45:02 13° S 20:46:53 10° SSE visible
